Location: Knobs
(40.8333°S, 175.2333°E)
Time: 03:09:05
(UTC+00:00)

Cosmos 2297 - Pass Details

Date: 12 June 2024
Orbit: 835 x 858 km, 71.0° (Epoch: 22 July)

Event Time Altitude Azimuth Distance (km) Brightness Sun altitude
Exits shadow 17:57:38 30° 279° (W) 1,485 4.5 -18.8°
Maximum altitude 17:57:50 30° 283° (WNW) 1,483 4.5 -18.8°
Drops below altitude 10° 18:02:42 10° 342° (NNW) 2,474 6.1 -17.9°
Sets 18:05:25 0° 353° (N) 3,404 7.0 -17.4°
